Starlink 35427

operational
NORAD ID: 66110 Int'l Des: 2025-236 Owner: SPXS Country: US Constellation: starlink
NOTLE

About Starlink 35427

Description loading...

Live Position

Loading 3D Globe...

Upcoming Passes

Altitude History

Altitude vs Time

uPlot chart will show altitude changes over time

Two-Line Element Set

1 66110U 25236AA 25310.90656715 -.00105840 00000-0 -72967-3 0 9996
2 66110 53.1574 317.9270 0001503 26.7108 333.3989 15.74117534 4092
Epoch: Nov 6, 2025 • Age: 6 hours

Current Status

Altitude 349.8 km
Velocity 7.70 km/s
Sub-Earth Point -11.85°S, 155.78°W
Launch Date Oct 19, 2025
Age 18 days
Type internet

Technical Details

Classification Payload
Mass 575.00 kg
Dry Mass 530.00 kg
Total Mass 575.00 kg
Length 0.30 m
Diameter 4.10 m
Span 29.00 m
Shape Box + pan
Manufacturer SPXS
Bus Type Starlink V2MO
Phase Status In Orbit
Owner/State SPXS/US

Large Constellations

Loading constellations...